Welcome to the New NWS' Forecast!
Most changes are behind the scenes, but click here for differences you might notice.
Latest weather observations around

Seattle, Seattle Boeing Field (KBFI)

Using English Units (Switch to International System of Units)
Date/ Time (PST) Wind (mph) Vis. (mi) Weather Sky Cond. Temp (°F) Rel. Humidity Wind Chill (°F) Heat Index (°F) Pressure Precip. (in)
Air Dwpt 6 hour Altimeter (inHg) Sea level (inHg) 1 hr 3 hr 6 hr
Max Min
Nov 22 05:53 ESE 3 10 Cloudy SCT013 OVC022 56 55     97%     29.96 29.96      
Nov 22 04:53 Calm 10 Cloudy OVC037 55 55     100%     29.96 29.96      
Nov 22 03:53 Calm 10 Cloudy OVC039 55 55     100%     29.95 29.94 0   0
Nov 22 02:53 SSE 7 6 Fog/Mist FEW022 BKN030 OVC036 56 56     100%     29.95 29.95 0    
Nov 22 01:53 SSE 7 8 Light Rain FEW035 OVC050 56 55     97%     29.96 29.95 0    
Nov 22 00:53 SSE 5 10 Cloudy BKN045 OVC049 55 54     96%     29.94 29.94 0 0  
Nov 21 23:53 S 5 10 Cloudy FEW008 FEW012 OVC032 54 54     100%     29.95 29.95 0    
Nov 21 23:48 S 3 5 Fog/Mist FEW008 BKN012 OVC030 54 54     100%     29.95   0    
Nov 21 23:41 ESE 3 5 Fog/Mist FEW008 SCT012 OVC030 54 54     100%     29.95   0    
Nov 21 22:58 Calm 2.5 Rain and Fog/Mist SCT006 OVC014 55 54     96%     29.95   0    
Nov 21 22:53 Calm 3 Rain and Fog/Mist SCT005 OVC014 54 54     100%     29.95 29.95 0    
Nov 21 21:53 ESE 5 3 Light Rain and Fog/Mist SCT009 BKN011 55 54     96%     29.94 29.93 0   0
Nov 21 20:57 SSE 8 3 Rain and Fog/Mist SCT009 BKN018 OVC040 57 57     100%     29.92   0    
Nov 21 20:55 SSE 7 3 Rain and Fog/Mist BKN009 OVC018 57 57     100%     29.91   0    
Nov 21 20:53 SSE 8 3 Rain and Fog/Mist SCT009 BKN018 OVC026 57 57     100%     29.91 29.91 0    
Nov 21 19:53 SSE 9 6 Light Rain and Fog/Mist FEW020 SCT035 OVC043 57 56     96%     29.89 29.88 0    
Nov 21 18:53 SSE 6 5 Light Rain and Fog/Mist FEW020 OVC030 56 54     93%     29.87 29.87 0 0  
Nov 21 17:53 SSE 3 10 Cloudy BKN030 OVC055 55 52     89%     29.85 29.85      
Nov 21 17:36 Calm 9 Cloudy BKN027 OVC040 52 51     97%     29.85        
Nov 21 16:53 Calm 10 Cloudy FEW025 BKN034 OVC047 52 51     97%     29.85 29.85      
Nov 21 15:53 SE 8 4 Fog/Mist OVC039 50 49     96% 47   29.85 29.85 0   0
Nov 21 14:53 6 4 Light Rain and Fog/Mist OVC041 48 47     96% 45   29.84 29.84 0    
Nov 21 13:53 Calm 5 Light Rain and Fog/Mist FEW004 SCT017 OVC036 48 47     96%     29.83 29.83 0    
Nov 21 12:53 Calm 4 Light Rain and Fog/Mist SCT006 BKN036 OVC047 47 46     97%     29.87 29.87 0 0  
Nov 21 12:35 Calm 4 Light Rain and Fog/Mist SCT006 BKN036 OVC047 46 46     100%     29.88   0    
Nov 21 11:53 Calm 2.5 Light Rain and Fog/Mist BKN006 BKN039 OVC060 46 45     96%     29.91 29.91 0    
Nov 21 10:53 Calm 2.5 Light Rain and Fog/Mist FEW008 BKN010 OVC033 45 45     100%     29.94 29.93 0    
Nov 21 10:39 Calm 2.5 Light Rain and Fog/Mist FEW008 BKN010 OVC033 45 44     97%     29.95   0    
Nov 21 09:53 Calm 2.5 Light Rain and Fog/Mist FEW005 BKN008 OVC031 44 43     96%     29.96 29.96 0   0
Nov 21 09:48 Calm 3 Light Rain and Fog/Mist BKN008 OVC031 45 43     93%     29.96   0    
Nov 21 08:53 NNW 3 4 Light Rain and Fog/Mist FEW008 BKN027 OVC035 44 42     93% 43   29.95 29.95 0    
Nov 21 08:31 Calm 4 Light Rain and Fog/Mist FEW005 BKN029 OVC035 44 42     93%     29.95   0    
Nov 21 08:21 NW 3 4 Light Rain and Fog/Mist FEW006 OVC031 44 42     93% 43   29.96   0    
Nov 21 07:53 N 3 7 Light Rain OVC033 43 41     93% 41   29.96 29.96 0    
Nov 21 06:53 Calm 7 Light Rain OVC037 43 42     97%     29.98 29.98 0 0  
Nov 21 05:53 Calm 6 Light Rain and Fog/Mist OVC040 43 41     93%     29.99 29.99 0    
Nov 21 04:53 SW 5 10 Light Rain OVC060 41 40     96% 38   30 29.99 0    
Nov 21 03:53 Calm 10 Mostly Cloudy BKN100 40 40     100%     30.02 30.01      
Nov 21 02:53 Calm 10 Mostly Clear FEW120 38 37     97%     30.04 30.03      
Nov 21 01:53 Calm 10 Clear CLR 38 37     97%     30.04 30.04      
Nov 21 00:53 Calm 10 Clear CLR 39 38     96%     30.05 30.05      
Nov 20 23:53 Calm 10 Clear CLR 39 38     96%     30.06 30.06      
Nov 20 22:53 Calm 10 Clear CLR 39 38     96%     30.08 30.08      
Nov 20 21:53 Calm 10 Clear CLR 40 38     93%     30.08 30.08      
Nov 20 20:53 Calm 10 Clear CLR 41 39     93%     30.06 30.06      
Nov 20 19:53 Calm 10 Clear CLR 43 38     82%     30.03 30.03      
Nov 20 18:53 NE 5 10 Mostly Clear FEW040 45 39     80% 43   30.02 30.01      
Nov 20 17:53 ENE 9 10 Mostly Cloudy BKN047 46 41     82% 41   29.99 29.98      
Nov 20 16:53   10 Mostly Cloudy SCT022 BKN041 BKN055 47 43     86%     29.96 29.96      
Nov 20 15:53 NE 6 10 Cloudy FEW008 SCT030 OVC039 50 44     80% 48   29.92 29.92     0
Nov 20 15:13 ENE 6 10 Cloudy SCT008 OVC024 49 46     90% 46   29.9        
Nov 20 14:53 Calm 10 Cloudy SCT008 BKN010 OVC017 50 44     80%     29.88 29.88 0    
Nov 20 14:42 SSE 6 5 Light Rain and Fog/Mist SCT006 BKN011 OVC017 51 45     79%     29.87   0    
Nov 20 14:01 SW 7 5 Light Rain and Fog/Mist BKN006 BKN011 OVC017 50 46     86% 47   29.84   0    
Nov 20 13:53 3 5 Fog/Mist SCT009 BKN014 OVC020 50 48     93% 49   29.84 29.83 0    
Nov 20 12:53 Calm 3 Light Rain and Fog/Mist SCT009 BKN022 OVC027 50 47     89%     29.79 29.79 0 0  
Nov 20 11:53 N 3 5 Light Rain and Fog/Mist SCT009 BKN022 OVC027 50 47     89% 49   29.75 29.75 0    
Nov 20 10:53 WNW 6 9 Cloudy FEW009 BKN014 OVC036 50 47     89% 48   29.71 29.71 0    
Nov 20 10:50 W 7 9 Cloudy FEW009 BKN014 OVC036 50 46     87% 47   29.71   0    
Nov 20 10:01 WSW 5 10 Cloudy BKN010 BKN015 OVC110 51 47     86%     29.68        
Nov 20 09:53 3 10 Cloudy SCT008 SCT017 BKN044 OVC130 50 47     89% 49   29.66 29.66 0   0
Nov 20 09:00 Calm 10 Light Rain FEW009 FEW017 OVC039 50 48     93%     29.62   0    
Nov 20 08:53 Calm 5 Light Rain and Fog/Mist BKN010 OVC023 49 48     97%     29.61 29.61 0    
Nov 20 08:23 NNW 6 5 Light Rain and Fog/Mist SCT006 OVC023 49 48     97% 46   29.57   0    
Nov 20 07:58 WNW 5 3 Light Rain and Fog/Mist BKN006 OVC023 49 48     97% 47   29.56   0    
Nov 20 07:53 W 8 4 Light Rain and Fog/Mist SCT007 OVC023 49 48     97% 45   29.56 29.56 0    
Nov 20 06:53 NNW 7 5 Heavy Rain and Fog/Mist SCT015 BKN019 OVC029 48 47     96% 45   29.51 29.51 0 0  
Nov 20 06:33 Calm 10 Cloudy BKN029 OVC034 47 45     93%     29.48   0    
Nov 20 05:53 Calm 8 Light Rain FEW028 BKN033 OVC041 47 46     97%     29.51 29.51 0    
Nov 20 04:53 Calm 10 Cloudy OVC031 47 46     97%     29.53 29.52 0    
Nov 20 03:53 SSE 3 10 Cloudy OVC027 46 46     100% 45   29.55 29.54     0
Nov 20 02:53 Calm 10 Cloudy OVC027 46 44     93%     29.58 29.57      
Nov 20 01:53 SSE 3 6 Fog/Mist OVC027 45 45     100% 44   29.59 29.59      
Nov 20 00:53 SSE 3 8 Cloudy OVC027 45 45     100% 44   29.61 29.61 0 0  
Nov 19 23:53 SSE 8 3 Fog/Mist FEW016 OVC035 44 43     96% 40   29.61 29.61 0    
Nov 19 22:53 SE 8 6 Fog/Mist SCT013 BKN021 OVC032 44 43     96% 40   29.62 29.62 0    
Nov 19 22:00 SE 6 3 Light Rain and Fog/Mist FEW022 BKN030 OVC035 44 42     93% 41   29.63   0    
Nov 19 21:53 ESE 3 7 Light Rain FEW014 OVC029 44 42     93% 43   29.64 29.63 0   0
Nov 19 20:53 SSE 6 7 Light Rain FEW014 OVC029 43 41     93% 39   29.64 29.64 0    
Nov 19 20:38 ESE 3 8 Light Rain FEW023 OVC029 43 42     97% 41   29.64   0    
Nov 19 19:53 SE 5 8 Light Rain SCT037 BKN050 OVC070 43 41     93% 40   29.64 29.64 0    
Nov 19 18:53 SE 10 9 Light Rain SCT044 OVC055 43 40     89% 37   29.68 29.68 0 0  
Nov 19 17:53 SSE 9 10 Light Rain OVC048 43 40     89% 38   29.71 29.71 0    
Nov 19 16:53 5 9 Light Rain OVC055 45 39     80% 43   29.72 29.72 0    
Nov 19 15:53 S 6 10 Light Rain OVC050 46 38     73% 43   29.73 29.72 0   0
Nov 19 14:53 WSW 5 10 Cloudy OVC055 48 37     66% 46   29.75 29.75 0    
Nov 19 13:53 SW 10 10 Cloudy OVC055 51 32     48%     29.77 29.77      
Nov 19 12:53 SSW 6 10 Cloudy OVC055 51 35     54%     29.78 29.77      
Nov 19 11:53 S 6 10 Cloudy OVC065 51 36     56%     29.83 29.83      
Nov 19 10:53 Calm 10 Cloudy OVC060 49 32     52%     29.88 29.87      
Nov 19 09:53 Calm 10 Cloudy OVC050 48 33     56%     29.91 29.9      
Nov 19 08:53 SE 7 10 Cloudy OVC044 44 33     65% 40   29.93 29.93      
Nov 19 07:53 SSE 11 10 Cloudy FEW038 BKN055 OVC070 42 33     70% 36   29.97 29.96      
Nov 19 06:53 ESE 6 10 Cloudy BKN060 OVC070 42 34     73% 38   29.99 29.99      
Jun 12 03:53 SSE 8 10 Mostly Cloudy BKN060 53 51     93%     30 30      
Jun 12 02:53 SSE 7 10 Mostly Cloudy BKN055 54 51     90%     30 29.99      
Jun 11 22:53 Calm 10 Clear CLR 61 49     64%     29.99 29.99      
Jun 11 14:53 NW 8 10 Clear   69 48     47%     30 29.99      
Jun 11 01:53 Calm 10 Mostly Cloudy BKN085 57 47     69%     29.97 29.97      
Jun 10 23:53 Calm 10 Cloudy OVC075 59 47     64%     29.95 29.95      
Jun 10 15:53 NNW 7 10 Clear   65 44     47%     29.85 29.85      
Jun 08 08:44 SSE 8 10 Light Rain SCT007 BKN038 OVC095 57 57     100%     29.66   0    
Jun 07 14:53 6 10 Cloudy SCT140 OVC250 79 54     42%   79 29.69 29.69      
Jun 06 00:53 3 10 Clear CLR 60 46     60%     30.04 30.04      
Jun 05 20:53 NW 6 10 Clear CLR 65 46     50%     30.05 30.05      
Jun 05 19:53 NW 6 10 Mostly Cloudy BKN200 67 47     49%     30.05 30.05      
Jun 05 15:53 WNW 9 10 Mostly Cloudy BKN250 71 45     39%   70 30.08 30.07